1501027200.81,647,18.75,72954.8,0.41,0.05,0.05,0,*4D
1501027201.94,648,18.75,72956.5,0.39,0.01,0.01,0,*4D
1501027203.08,649,18.75,72958.0,0.39,0.01,0.01,0,*4C
1501027204.21,650,18.75,72954.5,0.39,0.01,0.01,0,*44
1501027205.38,651,18.75,72956.5,0.41,0.05,0.09,0,*46
1501027206.54,652,18.75,72954.3,0.41,0.05,0.05,0,*49
1501027207.71,653,18.75,72958.0,0.41,0.05,0.09,0,*44
1501027208.88,654,18.75,72958.8,0.41,0.05,0.05,0,*4F
1501027210.04,655,18.75,72958.8,0.41,0.09,0.09,0,*4E
1501027211.21,656,18.75,72956.0,0.41,0.05,0.09,0,*41
1501027212.37,657,18.75,72958.3,0.41,0.05,0.09,0,*40
1501027213.54,658,18.75,72958.5,0.41,0.09,0.05,0,*4F
1501027214.7,659,18.75,72956.3,0.41,0.09,0.09,0,*42
1501027215.87,660,18.75,72958.8,0.41,0.05,0.09,0,*44
1501027217.03,661,18.75,72958.0,0.41,0.05,0.09,0,*45
1501027218.2,662,18.75,72958.5,0.41,0.05,0.09,0,*46
1501027219.36,663,18.75,72956.5,0.41,0.05,0.05,0,*4B
1501027220.54,664,18.75,72956.5,0.41,-0.03,0.05,0,*67
1501027221.7,665,18.75,72958.5,0.41,0.05,0.05,0,*4D
1501027222.87,666,18.75,72954.0,0.41,0.05,0.05,0,*4E
1501027224.04,667,18.75,72958.5,0.41,0.05,-0.03,0,*64
1501027225.2,668,18.75,72954.5,0.41,0.05,-0.03,0,*6B
1501027226.37,669,18.75,72956.5,0.41,0.05,0.05,0,*41
1501027227.54,670,18.75,72956.0,0.41,0.05,0.05,0,*49
1501027228.7,671,18.75,72956.3,0.41,0.09,0.05,0,*44
1501027229.87,672,18.75,72956.0,0.41,0.05,0.05,0,*4B
1501027231.04,673,18.75,72958.5,0.41,-0.03,0.05,0,*61
1501027232.2,674,18.75,72958.3,0.41,0.05,0.05,0,*4D
1501027233.37,675,18.75,72956.8,0.41,0.05,0.05,0,*4C
1501027234.54,676,18.75,72958.8,0.41,-0.03,0.09,0,*68
1501027235.71,677,18.75,72956.8,0.41,0.05,0.05,0,*4E
1501027236.87,678,18.75,72956.5,0.41,0.05,0.05,0,*41
1501027238.04,679,18.75,72958.3,0.41,0.09,0.05,0,*4C
1501027239.17,680,18.75,72956.8,0.39,0.01,0.01,0,*49
1501027240.34,681,18.75,72956.8,0.41,0.05,0.05,0,*47
1501027241.51,682,18.75,72962.8,0.41,-0.03,0.09,0,*63
1501027242.64,683,18.75,72956.0,0.39,0.01,0.01,0,*4A
1501027243.81,684,18.75,72958.5,0.41,0.05,0.05,0,*42
1501027244.98,685,18.75,72956.8,0.41,0.05,0.09,0,*4F
1501027246.14,686,18.75,72956.5,0.41,0.05,0.09,0,*4C
1501027247.31,687,18.81,72960.3,0.41,0.05,0.05,0,*41
1501027248.47,688,18.75,72956.5,0.41,0.05,0.05,0,*4E
1501027249.62,689,18.75,72960.3,0.43,0.05,0.05,0,*4D
1501027250.79,690,18.75,72958.0,0.41,-0.03,-0.03,0,*47
1501027251.96,691,18.75,72958.3,0.41,-0.03,-0.03,0,*46
1501027253.13,692,18.75,72958.8,0.41,0.05,0.05,0,*45
1501027254.29,693,18.75,72952.3,0.41,0.05,0.05,0,*44
1501027255.46,694,18.75,72956.3,0.41,0.05,0.05,0,*43
1501027256.63,695,18.75,72958.8,0.41,0.05,-0.03,0,*69
1501027257.79,696,18.75,72958.3,0.41,0.05,0.05,0,*41
1501027258.94,697,18.75,72958.5,0.43,-0.03,0.05,0,*69
1501027260.14,698,18.75,72956.0,0.37,-0.11,-0.11,0,*4E
1501027261.31,699,18.75,72962.0,0.41,-0.03,0.05,0,*65
1501027262.48,700,18.75,72958.5,0.41,-0.03,-0.03,0,*4F
1501027263.64,701,18.75,72956.0,0.41,0.05,0.05,0,*4E
1501027264.82,702,18.75,72960.3,0.41,-0.03,-0.03,0,*4D
1501027265.99,703,18.75,72960.8,0.41,-0.03,0.09,0,*6B
1501027267.16,704,18.75,72956.8,0.41,-0.03,0.05,0,*60
1501027268.33,705,18.75,72958.0,0.41,-0.03,0.05,0,*61
1501027269.5,706,18.75,72958.3,0.41,-0.03,0.05,0,*62
1501027270.67,707,18.75,72958.8,0.41,-0.03,-0.03,0,*48
1501027271.83,708,18.75,72958.3,0.43,-0.03,-0.03,0,*45
1501027273.0,709,18.75,72956.8,0.41,-0.03,-0.03,0,*46
1501027274.15,710,18.75,72958.0,0.43,-0.03,0.05,0,*67
1501027275.32,711,18.75,72958.0,0.41,-0.03,0.05,0,*64
1501027276.46,712,18.75,72956.3,0.43,-0.03,0.05,0,*65
1501027277.64,713,18.75,72956.8,0.41,-0.03,-0.03,0,*4D
1501027278.81,714,18.75,72958.0,0.41,-0.03,-0.03,0,*4A
1501027279.98,715,18.75,72960.5,0.41,-0.07,-0.03,0,*4F
1501027281.16,716,18.75,72958.5,0.41,-0.03,-0.07,0,*4C
1501027282.33,717,18.75,72956.5,0.41,0.05,-0.03,0,*62
1501027283.5,718,18.75,72958.3,0.41,-0.07,-0.03,0,*42
1501027284.67,719,18.75,72956.3,0.41,-0.07,-0.03,0,*43
1501027285.84,720,18.75,72956.0,0.41,-0.03,-0.07,0,*49
1501027287.01,721,18.75,72958.3,0.41,-0.03,-0.03,0,*4C
1501027288.16,722,18.75,72956.5,0.43,-0.03,-0.03,0,*4D
1501027289.31,723,18.75,72956.0,0.39,-0.07,-0.07,0,*41
1501027290.47,724,18.75,72954.5,0.39,-0.07,-0.07,0,*46
1501027291.63,725,18.75,72958.8,0.39,-0.07,-0.11,0,*70
1501027292.78,726,18.75,72960.3,0.39,-0.07,-0.07,0,*44
1501027293.93,727,18.75,72958.8,0.39,-0.07,-0.07,0,*45
1501027295.09,728,18.75,72958.0,0.39,-0.11,-0.07,0,*7D
1501027296.24,729,18.75,72956.5,0.43,-0.03,-0.03,0,*46
1501027297.41,730,18.75,72958.5,0.41,-0.07,-0.03,0,*48
1501027298.58,731,18.75,72958.5,0.41,-0.03,-0.07,0,*49
1501027299.76,732,18.75,72958.3,0.41,-0.03,-0.03,0,*4E
1501027300.92,733,18.75,72958.0,0.41,0.05,0.05,0,*4F
1501027302.1,734,18.75,72958.0,0.41,-0.03,-0.03,0,*48
1501027303.27,735,18.75,72958.5,0.41,-0.03,-0.03,0,*49
1501027304.44,736,18.75,72954.0,0.41,-0.03,-0.03,0,*4A
1501027305.62,737,18.75,72956.5,0.41,-0.03,-0.03,0,*4B
1501027306.79,738,18.75,72958.3,0.41,-0.03,-0.03,0,*44
1501027307.96,739,18.75,72954.5,0.41,-0.03,-0.03,0,*45
1501027309.14,740,18.75,72952.8,0.41,-0.07,-0.03,0,*4F
1501027310.3,741,18.75,72956.5,0.41,0.05,0.05,0,*4A
1501027311.47,742,18.75,72958.5,0.41,-0.03,-0.03,0,*49
1501027312.64,743,18.75,72958.3,0.41,0.05,0.09,0,*44
1501027313.81,744,18.75,72956.0,0.41,0.05,-0.03,0,*64
1501027314.98,745,18.75,72958.8,0.41,-0.03,0.05,0,*65
1501027316.15,746,18.75,72956.3,0.41,-0.03,0.05,0,*66
1501027317.32,747,18.75,72954.3,0.41,-0.03,0.05,0,*67
1501027318.49,748,18.75,72956.0,0.41,-0.07,-0.03,0,*47
1501027319.66,749,18.75,72956.5,0.41,-0.03,0.05,0,*69
1501027320.83,750,18.75,72956.3,0.41,-0.03,0.05,0,*61
1501027322.0,751,18.75,72958.8,0.41,-0.07,-0.03,0,*4F
1501027323.18,752,18.75,72954.3,0.41,-0.03,-0.03,0,*48
1501027324.35,753,18.75,72956.5,0.41,-0.03,-0.07,0,*4D
1501027325.52,754,18.75,72958.3,0.41,-0.03,-0.07,0,*4A
1501027326.69,755,18.75,72956.5,0.41,-0.07,0.05,0,*60
1501027327.86,756,18.75,72956.5,0.41,0.09,0.05,0,*40
1501027329.03,757,18.75,72958.8,0.41,0.09,-0.03,0,*6A
1501027330.19,758,18.75,72954.3,0.41,0.05,0.05,0,*42
1501027331.37,759,18.75,72956.3,0.41,-0.03,-0.07,0,*47
1501027332.54,760,18.75,72956.5,0.41,-0.03,-0.03,0,*49
1501027333.71,761,18.75,72958.3,0.41,0.05,-0.03,0,*63
1501027334.88,762,18.75,72958.3,0.41,-0.03,-0.03,0,*4B
1501027336.05,763,18.75,72958.0,0.41,0.05,-0.03,0,*61
1501027337.22,764,18.75,72956.3,0.41,0.05,-0.07,0,*62
1501027338.36,765,18.75,72958.8,0.39,0.01,0.05,0,*47
1501027339.52,766,18.75,72954.5,0.41,0.05,0.09,0,*43
1501027340.69,767,18.75,72958.3,0.41,-0.07,0.05,0,*61
1501027341.86,768,18.75,72956.3,0.41,0.05,0.05,0,*41
1501027343.03,769,18.75,72958.3,0.41,-0.03,0.05,0,*6B
1501027344.2,770,18.75,72952.8,0.41,-0.03,0.05,0,*63
1501027345.37,771,18.75,72956.0,0.41,0.05,-0.03,0,*62
1501027346.54,772,18.75,72958.8,0.41,0.05,-0.03,0,*61
1501027347.67,773,18.75,72954.5,0.39,0.01,0.01,0,*44
1501027348.84,774,18.75,72958.0,0.41,0.05,-0.03,0,*67
1501027350.01,775,18.75,72952.5,0.41,0.05,0.05,0,*4D
1501027351.17,776,18.75,72954.5,0.41,0.09,-0.03,0,*69
1501027352.34,777,18.75,72958.0,0.41,0.05,-0.03,0,*64
1501027353.48,778,18.75,72956.3,0.39,0.01,0.01,0,*4F
1501027354.64,779,18.75,72956.5,0.41,0.09,0.05,0,*4D
1501027355.81,780,18.75,72956.3,0.41,0.09,0.05,0,*4B
1501027356.97,781,18.75,72958.0,0.41,0.05,0.09,0,*4A
1501027358.14,782,18.75,72958.5,0.41,-0.03,0.05,0,*6E
1501027359.28,783,18.75,72956.0,0.39,0.01,0.01,0,*4B
1501027360.42,784,18.75,72958.5,0.39,0.05,0.01,0,*48
1501027361.59,785,18.75,72954.3,0.41,0.05,0.05,0,*42
1501027362.75,786,18.75,72958.5,0.41,0.05,0.09,0,*4D
1501027363.92,787,18.75,72956.5,0.37,-0.03,0.01,0,*6E
1501027365.09,788,18.75,72952.8,0.41,0.09,0.09,0,*4F
1501027366.23,789,18.75,72958.8,0.39,0.01,0.05,0,*45
1501027367.36,790,18.75,72958.8,0.39,0.01,0.01,0,*49
1501027368.51,791,18.75,72954.5,0.39,0.05,0.01,0,*4C
1501027369.67,792,18.75,72956.8,0.41,0.05,0.09,0,*48
1501027370.84,793,18.75,72958.3,0.41,0.05,0.05,0,*45
1501027371.98,794,18.75,72952.8,0.39,0.01,0.05,0,*49
1501027373.11,795,18.75,72954.3,0.39,0.01,0.01,0,*4C
1501027374.26,796,18.75,72956.5,0.39,0.05,0.05,0,*4F
1501027375.42,797,18.75,72954.3,0.41,0.05,0.09,0,*4D
1501027376.56,798,18.75,72952.0,0.39,0.01,0.05,0,*45
1501027377.73,799,18.75,72956.8,0.41,0.09,0.09,0,*4F
1501027378.89,800,18.75,72954.0,0.41,0.09,0.05,0,*4C
1501027380.06,801,18.75,72954.5,0.41,0.09,0.05,0,*4D
1501027381.2,802,18.75,72956.0,0.39,0.05,0.05,0,*4D
1501027382.37,803,18.75,72954.0,0.37,-0.03,0.01,0,*6D
1501027383.54,804,18.75,72958.8,0.41,0.09,0.05,0,*48
1501027384.69,805,18.75,72954.0,0.39,0.05,0.05,0,*4A
1501027385.85,806,18.75,72952.0,0.37,0.01,-0.03,0,*68
1501027387.0,807,18.75,72954.5,0.39,0.05,0.05,0,*48
1501027388.16,808,18.75,72956.0,0.37,0.01,-0.03,0,*66
1501027389.31,809,18.75,72952.0,0.39,0.05,0.05,0,*46
1501027390.44,810,18.75,72954.3,0.39,0.01,0.01,0,*4E
1501027391.61,811,18.75,72956.0,0.41,0.09,0.09,0,*40
1501027392.75,812,18.75,72958.0,0.39,0.01,0.05,0,*48
1501027393.91,813,18.75,72954.3,0.41,0.09,0.05,0,*4E
1501027395.08,814,18.75,72952.8,0.41,0.05,0.09,0,*49
1501027396.24,815,18.75,72952.0,0.37,0.01,-0.03,0,*6A
1501027397.39,816,18.75,72954.3,0.39,0.05,0.05,0,*48
1501027398.53,817,18.75,72954.3,0.39,0.05,0.05,0,*49
1501027399.7,818,18.75,72952.5,0.39,0.13,0.05,0,*71
1501027400.86,819,18.75,72958.0,0.37,0.01,0.01,0,*49
1501027402.01,820,18.75,72956.0,0.39,0.05,0.05,0,*4D
1501027403.2,821,18.75,72954.5,0.39,0.13,0.13,0,*4C
1501027404.36,822,18.75,72952.0,0.39,0.13,0.05,0,*78
1501027405.54,823,18.75,72952.3,0.37,-0.03,0.09,0,*67
1501027406.68,824,18.75,72954.3,0.39,0.05,0.05,0,*49
1501027407.83,825,18.75,72952.0,0.39,0.05,0.05,0,*48
1501027409.0,826,18.75,72952.0,0.39,0.05,0.13,0,*7C
1501027410.16,827,18.75,72954.0,0.37,0.09,0.01,0,*4C
1501027411.33,828,18.75,72954.5,0.39,0.13,0.01,0,*76
1501027412.51,829,18.75,72954.3,0.39,0.13,0.13,0,*44
1501027413.71,830,18.75,72948.5,0.39,0.13,0.13,0,*4C
1501027414.86,831,18.75,72954.8,0.39,-0.03,0.09,0,*6A
1501027416.04,832,18.75,72952.5,0.41,0.09,0.17,0,*7E
1501027417.23,833,18.75,72950.8,0.41,0.21,0.09,0,*7A
1501027418.42,834,18.75,72954.5,0.41,0.17,0.09,0,*78
1501027419.61,835,18.75,72948.8,0.39,0.13,0.13,0,*49
1501027420.8,836,18.75,72950.5,0.39,0.13,0.13,0,*4A
1501027421.99,837,18.75,72954.0,0.39,0.13,0.13,0,*4B
1501027423.18,838,18.75,72952.8,0.39,0.13,0.13,0,*44
1501027424.37,839,18.75,72950.3,0.39,0.13,0.13,0,*45
1501027425.53,840,18.75,72952.5,0.37,0.09,0.09,0,*45
1501027426.73,841,18.75,72948.3,0.39,0.13,0.13,0,*4A
1501027427.94,842,18.75,72950.5,0.37,0.13,0.13,0,*47
1501027429.1,843,18.75,72952.5,0.37,0.09,0.01,0,*4E
1501027430.29,844,18.75,72952.5,0.39,0.13,0.17,0,*4B
1501027431.48,845,18.75,72954.0,0.37,0.13,0.09,0,*7B
1501027432.67,846,18.75,72952.0,0.39,0.13,0.17,0,*49
1501027433.86,847,18.75,72954.0,0.39,0.13,0.13,0,*4C
1501027435.05,848,18.75,72950.8,0.39,0.13,0.13,0,*43
1501027436.24,849,18.75,72950.0,0.39,0.13,0.17,0,*46
1501027437.43,850,18.75,72952.3,0.39,0.13,0.13,0,*4A
1501027438.62,851,18.75,72954.8,0.39,0.17,0.13,0,*4F
1501027439.81,852,18.75,72950.3,0.39,0.13,0.13,0,*48
1501027441.0,853,18.75,72948.3,0.37,0.09,0.13,0,*7C
1501027442.19,854,18.75,72948.5,0.39,0.17,0.13,0,*4A
1501027443.38,855,18.75,72952.3,0.39,0.13,0.13,0,*4F
1501027444.57,856,18.75,72952.0,0.39,0.13,0.17,0,*48
1501027445.76,857,18.75,72948.3,0.39,0.13,0.17,0,*49
1501027446.92,858,18.75,72950.8,0.39,0.13,0.09,0,*79
1501027448.11,859,18.75,72950.8,0.37,0.13,0.09,0,*76
1501027449.28,860,18.75,72950.0,0.37,0.09,0.09,0,*47
1501027450.47,861,18.75,72950.8,0.39,0.17,0.17,0,*48
1501027451.64,862,18.75,72948.5,0.39,0.13,0.09,0,*70
1501027452.85,863,18.75,72946.8,0.37,0.13,0.13,0,*44
1501027454.02,864,18.75,72948.3,0.37,0.09,0.09,0,*43
1501027455.21,865,18.75,72950.0,0.37,0.09,0.13,0,*79
1501027456.38,866,18.75,72948.8,0.37,0.09,0.09,0,*41
1501027457.57,867,18.75,72950.8,0.39,0.13,0.13,0,*4E
1501027458.76,868,18.75,72948.8,0.39,0.17,0.17,0,*41
1501027459.97,869,18.75,72950.8,0.37,0.13,0.13,0,*4E
1501027461.16,870,18.75,72950.5,0.39,0.13,0.17,0,*4C
1501027462.37,871,18.75,72948.0,0.37,0.13,0.13,0,*47
1501027463.58,872,18.75,72948.3,0.37,0.13,0.13,0,*44
1501027464.77,873,18.75,72950.3,0.37,0.09,0.13,0,*7E
1501027465.96,874,18.75,72946.8,0.37,0.13,0.09,0,*79
1501027467.15,875,18.75,72950.0,0.39,0.13,0.25,0,*48
1501027468.34,876,18.75,72950.3,0.37,0.09,0.13,0,*7B
1501027469.54,877,18.75,72952.5,0.39,0.13,0.21,0,*4E
1501027470.73,878,18.75,72948.0,0.39,0.13,0.17,0,*44
1501027471.92,879,18.75,72948.0,0.39,0.13,0.25,0,*44
1501027473.11,880,18.75,72950.8,0.39,0.17,0.17,0,*47
1501027474.32,881,18.75,72946.8,0.37,0.13,0.13,0,*48
1501027475.51,882,18.75,72948.8,0.39,0.25,0.25,0,*45
1501027476.71,883,18.75,72946.3,0.39,0.25,0.17,0,*45
1501027477.93,884,18.75,72948.3,0.37,0.21,0.21,0,*4D
1501027479.12,885,18.75,72946.5,0.39,0.25,0.25,0,*42
1501027480.34,886,18.75,72950.0,0.37,0.21,0.25,0,*4B
1501027481.55,887,18.75,72946.5,0.37,0.21,0.13,0,*4F
1501027482.77,888,18.75,72948.3,0.37,0.25,0.13,0,*44
1501027483.99,889,18.75,72944.5,0.37,0.13,0.21,0,*41
1501027485.21,890,18.75,72948.8,0.37,0.21,0.21,0,*48
1501027486.43,891,18.75,72944.8,0.37,0.13,0.21,0,*48
1501027487.65,892,18.75,72944.3,0.37,0.13,0.21,0,*4B
1501027488.84,893,18.75,72944.0,0.39,0.25,0.25,0,*45
1501027490.06,894,18.75,72948.5,0.37,0.21,0.21,0,*4C
1501027491.28,895,18.75,72946.5,0.37,0.25,0.13,0,*48
1501027492.5,896,18.75,72946.8,0.37,0.13,0.21,0,*4F
1501027493.72,897,18.75,72946.5,0.37,0.25,0.21,0,*4B
1501027494.94,898,18.75,72946.0,0.37,0.13,0.21,0,*41
1501027496.13,899,18.75,72946.3,0.39,0.25,0.25,0,*4F
1501027497.33,900,18.75,72946.3,0.39,0.21,0.29,0,*46
1501027498.55,901,18.75,72944.0,0.37,0.21,0.21,0,*41
1501027499.74,902,18.75,72944.8,0.39,0.25,0.25,0,*4C
1501027500.96,903,18.75,72944.0,0.37,0.21,0.25,0,*47
1501027502.17,904,18.75,72944.0,0.37,0.25,0.25,0,*44
1501027503.39,905,18.75,72946.3,0.37,0.25,0.21,0,*41
1501027504.61,906,18.75,72948.0,0.37,0.25,0.25,0,*46
1501027505.83,907,18.75,72944.5,0.37,0.21,0.21,0,*47
1501027507.05,908,18.75,72946.5,0.37,0.25,0.25,0,*48
1501027508.27,909,18.75,72944.5,0.37,0.25,0.21,0,*4D
1501027509.48,910,18.75,72944.8,0.37,0.33,0.25,0,*46
1501027510.68,911,18.75,72950.0,0.35,0.25,0.21,0,*46
1501027511.9,912,18.75,72946.8,0.37,0.25,0.25,0,*43
1501027513.12,913,18.75,72946.5,0.37,0.25,0.25,0,*42
1501027514.33,914,18.75,72946.5,0.37,0.25,0.25,0,*45
1501027515.55,915,18.75,72944.0,0.37,0.25,0.25,0,*44
1501027516.76,916,18.75,72946.8,0.37,0.25,0.25,0,*47
1501027517.98,917,18.75,72946.5,0.37,0.21,0.25,0,*42
1501027519.19,918,18.75,72946.8,0.37,0.37,0.25,0,*4A
1501027520.41,919,18.75,72948.3,0.37,0.33,0.25,0,*4F
1501027521.62,920,18.75,72944.0,0.37,0.33,0.25,0,*45
1501027522.83,921,18.75,72944.0,0.37,0.33,0.25,0,*44
1501027524.04,922,18.75,72948.0,0.37,0.33,0.25,0,*47
1501027525.25,923,18.75,72946.3,0.37,0.33,0.33,0,*41
1501027526.46,924,18.75,72948.0,0.37,0.33,0.33,0,*46
1501027527.68,925,18.75,72950.8,0.37,0.33,0.33,0,*47
1501027528.87,926,18.75,72944.0,0.39,0.37,0.37,0,*4A
1501027530.08,927,18.75,72944.8,0.37,0.33,0.33,0,*45
1501027531.29,928,18.75,72946.3,0.37,0.37,0.25,0,*49
1501027532.5,929,18.75,72944.8,0.37,0.37,0.33,0,*4F
1501027533.72,930,18.75,72946.5,0.37,0.33,0.37,0,*47
1501027534.93,931,18.75,72944.0,0.37,0.37,0.37,0,*42
1501027536.15,932,18.75,72946.3,0.37,0.41,0.37,0,*40
1501027537.36,933,18.75,72946.5,0.37,0.37,0.33,0,*44
1501027538.58,934,18.75,72946.0,0.37,0.37,0.33,0,*43
1501027539.79,935,18.75,72944.0,0.37,0.37,0.41,0,*47
1501027541.0,936,18.75,72950.3,0.37,0.37,0.33,0,*41
1501027542.22,937,18.75,72944.5,0.37,0.37,0.37,0,*44
1501027543.43,938,18.75,72946.3,0.37,0.37,0.41,0,*4A
1501027544.65,939,18.75,72942.5,0.37,0.41,0.37,0,*4B
1501027545.86,940,18.75,72944.0,0.37,0.37,0.33,0,*40
1501027547.07,941,18.75,72942.3,0.37,0.33,0.37,0,*41
1501027548.29,942,18.75,72942.0,0.33,0.33,0.33,0,*42
1501027549.5,943,18.75,72944.0,0.37,0.37,0.33,0,*43
1501027550.71,944,18.75,72944.3,0.37,0.41,0.41,0,*40
1501027551.93,945,18.75,72946.5,0.37,0.37,0.37,0,*41
1501027553.14,946,18.75,72946.5,0.37,0.41,0.41,0,*42
1501027554.36,947,18.75,72946.5,0.37,0.41,0.41,0,*43
1501027555.55,948,18.75,72946.3,0.35,0.37,0.41,0,*4F
1501027556.77,949,18.75,72946.5,0.33,0.37,0.37,0,*49
1501027557.96,950,18.75,72946.3,0.35,0.41,0.41,0,*47
1501027559.16,951,18.75,72944.0,0.35,0.41,0.41,0,*46
1501027560.37,952,18.75,72946.5,0.33,0.33,0.37,0,*47
1501027561.56,953,18.75,72944.8,0.35,0.41,0.41,0,*44
1501027562.76,954,18.75,72944.3,0.35,0.41,0.41,0,*43
1501027563.95,955,18.75,72946.5,0.35,0.41,0.41,0,*42
1501027565.15,956,18.75,72946.5,0.35,0.41,0.41,0,*41
1501027566.34,957,18.75,72944.3,0.35,0.41,0.41,0,*40
1501027567.56,958,18.75,72944.5,0.37,0.41,0.41,0,*4D
1501027568.75,959,18.75,72944.8,0.35,0.41,0.41,0,*4E
1501027569.97,960,18.75,72946.5,0.37,0.41,0.41,0,*46
1501027571.16,961,18.75,72942.8,0.35,0.41,0.41,0,*45
1501027572.36,962,18.75,72944.3,0.35,0.47,0.41,0,*40
1501027573.56,963,18.75,72944.8,0.35,0.47,0.41,0,*41
1501027574.75,964,18.75,72944.0,0.35,0.47,0.41,0,*46
1501027575.95,965,18.75,72944.8,0.35,0.47,0.41,0,*47
1501027577.15,966,18.75,72946.8,0.35,0.47,0.41,0,*44
1501027578.34,967,18.75,72946.5,0.35,0.51,0.41,0,*42
1501027579.56,968,18.75,72944.0,0.37,0.47,0.41,0,*48
1501027580.78,969,18.75,72946.3,0.37,0.47,0.47,0,*4F
1501027581.99,970,18.75,72946.3,0.35,0.47,0.47,0,*45
1501027583.19,971,18.75,72948.0,0.35,0.47,0.47,0,*44
1501027584.39,972,18.75,72946.3,0.35,0.47,0.47,0,*47
1501027585.56,973,18.75,72944.8,0.33,0.43,0.43,0,*40
1501027586.76,974,18.75,72948.3,0.35,0.47,0.47,0,*41
1501027587.96,975,18.75,72946.3,0.35,0.51,0.51,0,*40
1501027589.16,976,18.75,72950.0,0.35,0.47,0.51,0,*44
1501027590.36,977,18.75,72946.3,0.33,0.43,0.47,0,*40
1501027591.56,978,18.75,72944.0,0.35,0.51,0.47,0,*4A
1501027592.76,979,18.75,72944.8,0.35,0.51,0.47,0,*4B
1501027593.96,980,18.75,72946.0,0.35,0.51,0.59,0,*42
1501027595.16,981,18.75,72946.5,0.35,0.51,0.51,0,*4B
1501027596.39,982,18.75,72944.8,0.37,0.51,0.51,0,*4A
1501027597.59,983,18.75,72946.5,0.35,0.51,0.51,0,*49
1501027598.79,984,18.75,72942.8,0.35,0.51,0.51,0,*4E
1501027599.99,985,18.75,72944.8,0.35,0.51,0.47,0,*48
1501027601.19,986,18.75,72944.8,0.35,0.47,0.51,0,*4B
1501027602.4,987,18.75,72944.8,0.35,0.51,0.51,0,*4D
1501027603.6,988,18.75,72944.5,0.35,0.51,0.47,0,*45
1501027604.8,989,18.75,72944.0,0.35,0.59,0.59,0,*43
1501027606.02,990,18.75,72940.8,0.33,0.47,0.47,0,*4D
1501027607.22,991,18.75,72948.3,0.35,0.59,0.59,0,*4A
1501027608.42,992,18.75,72946.5,0.35,0.59,0.59,0,*49
1501027609.62,993,18.75,72946.0,0.35,0.63,0.59,0,*41
1501027610.85,994,18.75,72946.5,0.33,0.55,0.59,0,*45
1501027612.04,995,18.75,72944.8,0.35,0.59,0.63,0,*47
1501027613.25,996,18.75,72944.0,0.35,0.55,0.59,0,*41
1501027614.45,997,18.75,72946.8,0.35,0.59,0.59,0,*4C
1501027615.64,998,18.75,72950.0,0.35,0.63,0.63,0,*43
1501027616.84,999,18.75,72944.0,0.35,0.63,0.59,0,*4B
1501027618.07,1000,18.75,72946.0,0.33,0.59,0.59,0,*7C
1501027619.27,1001,18.75,72950.8,0.35,0.63,0.59,0,*72
1501027620.47,1002,18.75,72948.0,0.35,0.63,0.63,0,*78
1501027621.68,1003,18.75,72944.8,0.35,0.71,0.63,0,*7A
1501027622.88,1004,18.75,72946.5,0.35,0.63,0.63,0,*7E
1501027624.09,1005,18.75,72944.3,0.35,0.71,0.71,0,*7F
1501027625.29,1006,18.75,72944.0,0.35,0.71,0.63,0,*7F
1501027626.51,1007,18.75,72942.3,0.33,0.67,0.71,0,*7C
1501027627.71,1008,18.75,72944.8,0.35,0.63,0.59,0,*7B
1501027628.92,1009,18.75,72948.3,0.35,0.71,0.63,0,*70
1501027630.12,1010,18.75,72944.0,0.35,0.71,0.71,0,*7B
1501027631.33,1011,18.75,72946.5,0.35,0.71,0.63,0,*79
1501027632.53,1012,18.75,72948.0,0.35,0.71,0.63,0,*7A
1501027633.74,1013,18.75,72944.3,0.35,0.71,0.71,0,*78
1501027634.94,1014,18.75,72946.8,0.35,0.71,0.71,0,*7F
1501027636.15,1015,18.75,72946.0,0.35,0.71,0.71,0,*7E
1501027637.36,1016,18.75,72946.8,0.33,0.67,0.67,0,*7B
1501027638.58,1017,18.75,72948.3,0.33,0.67,0.67,0,*7A
1501027639.78,1018,18.75,72944.8,0.35,0.71,0.71,0,*73
1501027640.98,1019,18.75,72940.3,0.35,0.67,0.67,0,*72
1501027642.18,1020,18.75,72944.3,0.35,0.67,0.71,0,*7F
1501027643.38,1021,18.75,72946.5,0.35,0.75,0.71,0,*7D
1501027644.58,1022,18.75,72948.0,0.35,0.63,0.75,0,*7D
1501027645.79,1023,18.75,72946.0,0.35,0.71,0.63,0,*78
1501027646.99,1024,18.75,72942.5,0.35,0.63,0.63,0,*7C
1501027648.19,1025,18.75,72944.8,0.35,0.63,0.71,0,*7E
1501027649.42,1026,18.75,72942.0,0.33,0.55,0.63,0,*7D
1501027650.62,1027,18.75,72946.0,0.35,0.59,0.63,0,*76
1501027651.82,1028,18.75,72944.8,0.35,0.63,0.63,0,*70
1501027653.02,1029,18.75,72948.0,0.35,0.59,0.71,0,*7B
1501027654.23,1030,18.75,72948.3,0.35,0.63,0.71,0,*7A
1501027655.43,1031,18.75,72948.3,0.35,0.71,0.71,0,*78
1501027656.64,1032,18.75,72944.8,0.35,0.71,0.71,0,*7B
1501027657.84,1033,18.75,72946.5,0.35,0.71,0.71,0,*7A
1501027659.04,1034,18.75,72944.0,0.35,0.63,0.63,0,*7D
1501027660.25,1035,18.75,72946.0,0.35,0.71,0.63,0,*7F
1501027661.45,1036,18.75,72944.5,0.35,0.71,0.71,0,*7F
1501027662.66,1037,18.75,72944.8,0.35,0.71,0.71,0,*7E
1501027663.86,1038,18.75,72948.0,0.35,0.71,0.71,0,*71
1501027665.07,1039,18.75,72946.3,0.35,0.71,0.71,0,*70
1501027666.27,1040,18.75,72944.8,0.35,0.75,0.75,0,*7E
1501027667.49,1041,18.75,72948.8,0.33,0.67,0.59,0,*74
1501027668.69,1042,18.75,72946.5,0.35,0.75,0.71,0,*78
1501027669.9,1043,18.75,72950.3,0.35,0.75,0.75,0,*7D
1501027671.1,1044,18.75,72946.5,0.35,0.75,0.75,0,*7A
1501027672.31,1045,18.75,72948.8,0.35,0.75,0.75,0,*7B
1501027673.52,1046,18.75,72946.0,0.35,0.83,0.75,0,*71
1501027674.74,1047,18.75,72950.0,0.33,0.71,0.71,0,*7F
1501027675.95,1048,18.75,72946.5,0.35,0.75,0.71,0,*72
1501027677.15,1049,18.75,72946.8,0.35,0.75,0.75,0,*77
1501027678.35,1050,18.75,72946.0,0.35,0.71,0.71,0,*7F
1501027679.58,1051,18.75,72944.3,0.33,0.79,0.71,0,*70
1501027680.79,1052,18.75,72946.5,0.35,0.75,0.75,0,*7D
1501027681.99,1053,18.75,72944.0,0.35,0.75,0.75,0,*7C
1501027683.21,1054,18.75,72944.0,0.33,0.67,0.71,0,*7A
1501027684.44,1055,18.75,72942.5,0.33,0.71,0.71,0,*7C
1501027685.66,1056,18.75,72944.3,0.33,0.71,0.67,0,*78
1501027686.86,1057,18.75,72946.3,0.35,0.75,0.75,0,*78
1501027688.09,1058,18.75,72942.3,0.33,0.71,0.71,0,*71
1501027689.29,1059,18.75,72944.8,0.35,0.71,0.83,0,*7B
1501027690.52,1060,18.75,72944.0,0.37,0.75,0.75,0,*7E
1501027691.72,1061,18.75,72944.8,0.35,0.75,0.83,0,*74
1501027692.95,1062,18.75,72944.0,0.33,0.79,0.79,0,*78
1501027694.16,1063,18.75,72946.5,0.35,0.83,0.75,0,*76
1501027695.37,1064,18.75,72944.0,0.35,0.83,0.75,0,*71
1501027696.6,1065,18.75,72944.3,0.33,0.79,0.79,0,*7F
1501027697.81,1066,18.75,72944.5,0.35,0.83,0.83,0,*7A
1501027699.01,1067,18.75,72948.5,0.35,0.75,0.83,0,*72
1501027700.24,1068,18.75,72944.3,0.33,0.79,0.79,0,*72
1501027701.45,1069,18.75,72946.3,0.35,0.83,0.83,0,*75
1501027702.65,1070,18.75,72948.0,0.35,0.75,0.83,0,*74
1501027703.86,1071,18.75,72946.8,0.35,0.83,0.83,0,*7C
1501027705.07,1072,18.75,72944.5,0.35,0.71,0.71,0,*7F
1501027706.27,1073,18.75,72948.0,0.35,0.71,0.83,0,*73
1501027707.48,1074,18.75,72946.8,0.35,0.83,0.83,0,*79
1501027708.69,1075,18.75,72946.5,0.35,0.83,0.83,0,*78
1501027709.9,1076,18.75,72952.0,0.35,0.83,0.83,0,*7B
1501027711.11,1077,18.75,72944.3,0.35,0.83,0.83,0,*7A
1501027712.34,1078,18.75,72950.0,0.33,0.79,0.79,0,*73
1501027713.55,1079,18.75,72948.3,0.35,0.83,0.83,0,*74
1501027714.76,1080,18.75,72946.0,0.35,0.83,0.87,0,*76
1501027715.98,1081,18.75,72944.8,0.37,0.75,0.75,0,*71
1501027717.18,1082,18.75,72946.0,0.35,0.67,0.71,0,*77
1501027718.4,1083,18.75,72946.0,0.33,0.71,0.79,0,*7F
1501027719.61,1084,18.75,72946.3,0.35,0.83,0.87,0,*72
1501027720.82,1085,18.75,72944.8,0.35,0.83,0.75,0,*7E
1501027722.03,1086,18.75,72948.3,0.35,0.83,0.83,0,*74
1501027723.23,1087,18.75,72946.3,0.35,0.75,0.71,0,*71
1501027724.44,1088,18.75,72946.8,0.35,0.75,0.75,0,*7A
1501027725.64,1089,18.75,72946.3,0.35,0.75,0.87,0,*76
1501027726.85,1090,18.75,72950.8,0.35,0.75,0.83,0,*7A
1501027728.05,1091,18.75,72946.0,0.35,0.75,0.75,0,*72
1501027729.26,1092,18.75,72946.5,0.35,0.83,0.83,0,*71
1501027730.49,1093,18.75,72950.5,0.33,0.79,0.79,0,*76
1501027731.7,1094,18.75,72946.5,0.35,0.83,0.87,0,*73
1501027732.92,1095,18.75,72948.5,0.33,0.71,0.83,0,*7D